Home   Weather   Ganganagar   Past weeks

Flag for India Past Weather in Ganganagar, Rajasthan, India — Yesterday and Last 2 Weeks

Now
73 °F

Haze.


Feels Like: 77 °F
Forecast: 54 / 79 °F
Wind: 6 mph from Northwest

Location: Lahore Airport

Current Time: Dec 4, 2016 at 1:58:14 pm

Latest Report: Dec 4, 2016 at 1:25 pm


Visibility: 1 mi

Pressure: 30.12 "Hg

Humidity: 44%

Dew Point: 50 °F

Location of GanganagarLocation

Past Weather in Ganganagar — Graph

°F

Ganganagar Temperature Yesterday

Maximum temperature yesterday: 79 °F (at 2:55 pm)
Minimum temperature yesterday: 46 °F (at 7:55 am)
Average temperature yesterday: 62 °F

High & Low Weather Summary for the Past Weeks

 TemperatureHumidityPressure
High84 °F (Nov 21, 2:25 pm)100% (Dec 2, 2:55 am)30.18 "Hg (Dec 2, 2:55 am)
Low46 °F (Dec 3, 7:55 am)17% (Nov 28, 2:25 pm)29.86 "Hg (Nov 19, 2:25 pm)
Average66 °F60%29.99 "Hg
* Reported Nov 19 11:55 am — Dec 4 12:25 pm, Ganganagar, Weather by CustomWeather, © 2016

Note: Actual official high and low records may vary slightly from our data, if they occured in-between our weather recording intervals... More about our weather records

Advertising

Ganganagar Weather History for the Previous 24 Hours

Scroll right to see more
 ConditionsComfort  
Time TempWeatherWind HumidityBarometerVisibility
12:25 pm
Sun, Dec 4
72 °FPassing clouds.7 mph57%30.15 "Hg1 mi
11:55 am70 °FPassing clouds.3 mph64%30.18 "Hg1 mi
11:25 am68 °FPassing clouds.No wind69%30.18 "Hg1 mi
10:55 am66 °FScattered clouds.No wind73%30.18 "Hg1 mi
10:25 am63 °FScattered clouds.No wind77%30.18 "Hg1 mi
9:55 am59 °FPassing clouds.No wind77%30.18 "Hg1 mi
9:25 am55 °FPassing clouds.No wind77%30.18 "Hg1 mi
8:55 am54 °FFog.No wind82%30.18 "Hg1 mi
8:28 am50 °FFog.3 mph82%30.15 "Hg1 mi
8:00 am48 °FFog.No wind87%30.15 "Hg1 mi
7:30 am48 °FFog.No wind87%30.15 "Hg1 mi
7:00 am50 °FFog.No wind88%30.12 "Hg1 mi
6:30 am50 °FFog.No wind88%30.12 "Hg1 mi
5:30 am52 °FFog.No wind82%30.12 "Hg2 mi
5:00 am54 °FClear.No wind77%30.12 "Hg2 mi
4:30 am54 °FClear.No wind77%30.12 "Hg2 mi
4:00 am55 °FClear.No wind77%30.12 "Hg2 mi
3:25 am55 °FClear.No wind77%30.12 "Hg2 mi
2:55 am55 °FClear.No wind72%30.12 "Hg2 mi
2:25 am55 °FClear.No wind72%30.12 "Hg2 mi
1:55 am55 °FClear.No wind77%30.12 "Hg2 mi
1:29 am57 °FClear.No wind72%30.12 "Hg2 mi
12:59 am57 °FClear.No wind72%30.12 "Hg2 mi
12:29 am59 °FClear.No wind68%30.12 "Hg2 mi
11:55 pm
Sat, Dec 3
59 °FClear.No wind68%29.89 "Hg2 mi
11:25 pm61 °FClear.No wind63%30.15 "Hg2 mi
10:55 pm61 °FClear.No wind63%30.15 "Hg2 mi
10:25 pm63 °FClear.No wind59%30.15 "Hg2 mi
9:55 pm64 °FClear.No wind60%30.15 "Hg2 mi
9:25 pm64 °FClear.No wind60%30.12 "Hg2 mi
8:55 pm64 °FClear.No wind56%30.12 "Hg2 mi
8:25 pm66 °FClear.No wind52%30.12 "Hg2 mi
7:55 pm66 °FClear.No wind52%30.12 "Hg2 mi
7:25 pm68 °FHaze.No wind49%30.09 "Hg2 mi
6:55 pm70 °FHaze.No wind43%30.09 "Hg2 mi
6:25 pm72 °FHaze.No wind41%30.09 "Hg2 mi
5:55 pm75 °FHaze.No wind36%30.09 "Hg2 mi
4:55 pm77 °FHaze.3 mph30%30.07 "Hg2 mi
4:25 pm79 °FScattered clouds.No wind26%30.07 "Hg2 mi
3:55 pm79 °FScattered clouds.6 mph24%30.07 "Hg2 mi
3:25 pm79 °FScattered clouds.6 mph24%30.07 "Hg2 mi
2:55 pm79 °FHaze.8 mph26%30.09 "Hg2 mi
1:25 pm77 °FScattered clouds.7 mph28%30.09 "Hg2 mi
Weather by CustomWeather, © 2016

See weather overviewHow to use our weather pages